OPS 4682 DEB, 38426

Orbit data source: Space-Track

OPS 4682 DEB, 38426 is space debris in LEO originally from a launch on Sat, 03 Apr 1965 UTC launched from the Air Force Western Test Range (AFWTR). Debris objects in space refer to the collection of defunct objects orbiting the Earth. Examples of debris include non-operational satellites, rocket bodies, and fragments generated from explosions, collisions, or faulty payload assembly.

Loading next visibility...
Identifier
38426, 1965-027EF
Orbit
LEO
Country
Flag of USUS
Related business
Manufacturer
Unknown
Mission
Spacecraft
Bus & Motor
Unknown
Mass
Unknown
Launch date (UTC)
1965-04-03 (61 years ago)
Launch vehicle
Unknown
Launch site
Air Force Western Test Range (AFWTR)
Object type
Payload
Rocket body
Debris
Shape & HBR
Unknown shape, 0.1 m
Radar Cross Section
Small (<0.1 m²)

Expand to show TLE details & history
Last TLE update: 1 day ago

TLE from 1 day ago
0 OPS 4682 DEB
1 38426U 65027EF  26034.88382613  .00000178  00000-0  59630-3 0  9999
2 38426  90.2433   7.0739 0035863 137.5088 222.8818 12.96084158617794
Epoch: 2026-02-03T21:12Z
TLE epoch observation values (Epoch: 2026-02-03T21:12:42.577Z)
Latitude
-0.00001°
Longitude
-85.16187°
Altitude
1,300.513 km
Speed
7.197 km/s
True Right ascension
00h 28m 17s
True Declination
0° 00' 00"
Sunlit
Object was in daylight at epoch
Visualization orbit readout
Latitude
Unknown
Longitude
Unknown
Altitude
Unknown
Speed
Unknown
Apparent Right ascension
Unknown
Apparent Declination
Unknown
Sunlit
N/A
Visualization observer readout
Local Sidereal Time
08:45:56
Azimuth
Unknown
Elevation
Unknown
Doppler factor
Unknown
Orbital elements
Apogee altitude
1,302.046 km
Perigee altitude
1,247.156 km
Semi-major axis
7,652.738 km
Eccentricity
0.00359
Inclination
90.2433°
RAAN
7.0739°
Arg. of periapsis
137.5088°
True anomaly
222.60306°
Mean anomaly
222.8818°
Eccentric anomaly
222.74234°
Mean motion
3.24204 °/min
Orbital period
111.04 mins
BSTAR
0.0005963
Loading maneuver chart data...
Computing Atmospheric mass density...
Loading historical data...
Loading historical data...
Loading historical data...
Loading historical data...
Loading historical data...
Loading historical data...
Loading historical data...

Documentation

Showing up to 5 results
|